Peru, IL

8:10 AM CDT on September 21, 2017 (GMT -0500)
Illinois Valley Regional-Duncan

Weather History for KVYS - November, 2012

Change the Weather History Date:

Thursday, November 22, 2012

  Actual Average Record
Temperature  
Mean Temperature 52 °F -  
Max Temperature 63 °F 45 °F 71 °F (2010)
Min Temperature 39 °F 26 °F 9 °F (2015)
Degree Days  
Heating Degree Days 13    
Growing Degree Days 2 (Base 50)    
Moisture  
Dew Point 44 °F    
Average Humidity 75    
Maximum Humidity 93    
Minimum Humidity 53    
Precipitation  
Precipitation 0.00 in - - ()
Sea Level Pressure  
Sea Level Pressure 29.93 in    
Wind  
Wind Speed 14 mph (SSW)    
Max Wind Speed 26 mph    
Max Gust Speed 36 mph    
Visibility 8 miles    
Events Rain , Thunderstorm    
Averages and records for this station are not official NWS values.
T = Trace of Precipitation, MM = Missing Value Source: NWS Daily Summary

Daily Weather History Graph

Daily Weather History Graph

Search for Another Location

Airport or City:

Trip Planner

Search our weather history database for the weather conditions in past years. The results will help you decide how hot, cold, wet, or windy it might be!

Date:

Astronomy

Nov. 22, 2012 Rise Set
Actual Time 6:53 AM CST 4:31 PM CST
Civil Twilight 6:23 AM CST 5:01 PM CST
Nautical Twilight 5:49 AM CST 5:35 PM CST
Astronomical Twilight 5:16 AM CST 6:08 PM CST
Moon 1:20 PM CST (11/22) 1:10 AM CST (11/22)
Length of Visible Light 10h 38m
Length of Day
9h 37m
Waxing Gibbous, 71% of the Moon is Illuminated
Nov 22
Waxing Gibbous
Nov 28
Full
Dec 6
Last Quarter
Dec 13
New
Dec 19
First Quarter

Hourly Weather History & Observations

Time (CST) Temp. Windchill Dew Point Humidity Pressure Visibility Wind Dir Wind Speed Gust Speed Precip Events Conditions
12:15 AM 46.6 °F - 43.7 °F 90% 30.08 in 3.0 mi South 12.7 mph - N/A   Clear
12:35 AM 46.4 °F 41.1 °F 43.7 °F 90% 30.08 in 3.0 mi South 11.5 mph - N/A   Clear
12:55 AM 46.4 °F 41.9 °F 43.5 °F 90% 30.07 in 3.0 mi South 9.2 mph - N/A   Clear
1:15 AM 45.5 °F 40.8 °F 42.8 °F 90% 30.07 in 3.0 mi SSW 9.2 mph - N/A   Clear
1:35 AM 44.2 °F 39.2 °F 41.9 °F 91% 30.07 in 2.5 mi South 9.2 mph - N/A   Clear
1:55 AM 43.7 °F 39.1 °F 41.7 °F 93% 30.07 in 3.0 mi South 8.1 mph - N/A   Clear
2:15 AM 43.7 °F 39.7 °F 41.4 °F 91% 30.06 in 3.0 mi South 6.9 mph - N/A   Clear
2:35 AM 44.8 °F 39.4 °F 42.6 °F 92% 30.06 in 4.0 mi South 10.4 mph - N/A   Clear
2:55 AM 44.6 °F 38.8 °F 42.1 °F 91% 30.05 in 4.0 mi South 11.5 mph - N/A   Clear
3:15 AM 46.4 °F 40.4 °F 43.2 °F 88% 30.04 in 5.0 mi South 13.8 mph - N/A   Clear
3:35 AM 46.6 °F - 42.8 °F 87% 30.04 in 5.0 mi SSW 15.0 mph - N/A   Clear
3:55 AM 45.9 °F 39.7 °F 42.6 °F 88% 30.03 in 5.0 mi SSW 13.8 mph - N/A   Clear
4:15 AM 44.8 °F 39.0 °F 41.5 °F 88% 30.02 in 4.0 mi South 11.5 mph - N/A   Clear
4:35 AM 44.2 °F 38.4 °F 41.4 °F 90% 30.02 in 4.0 mi South 11.5 mph - N/A   Clear
4:55 AM 43.7 °F 37.3 °F 41.2 °F 91% 30.02 in 4.0 mi South 12.7 mph - N/A   Clear
5:15 AM 43.9 °F 37.5 °F 41.4 °F 91% 30.01 in 4.0 mi South 12.7 mph - N/A   Clear
5:35 AM 44.6 °F 38.8 °F 41.5 °F 89% 30.00 in 5.0 mi South 11.5 mph - N/A   Clear
5:55 AM 44.6 °F 38.1 °F 41.4 °F 88% 29.99 in 5.0 mi South 13.8 mph - N/A   Clear
6:15 AM 45.5 °F 38.6 °F 42.1 °F 88% 29.99 in 5.0 mi SSW 16.1 mph - N/A   Clear
6:35 AM 45.0 °F 38.2 °F 41.4 °F 87% 29.99 in 5.0 mi South 15.0 mph - N/A   Clear
6:55 AM 44.6 °F 38.1 °F 41.4 °F 88% 29.99 in 3.0 mi South 13.8 mph - N/A   Clear
7:15 AM 44.8 °F 37.7 °F 41.9 °F 90% 29.98 in 3.0 mi South 16.1 mph - N/A   Clear
7:35 AM 45.9 °F 38.8 °F 42.8 °F 89% 29.98 in 4.0 mi South 17.3 mph - N/A   Clear
7:55 AM 47.1 °F - 43.2 °F 86% 29.98 in 4.0 mi South 16.1 mph - N/A   Clear
8:15 AM 48.4 °F - 43.7 °F 84% 29.98 in 5.0 mi South 16.1 mph - N/A   Clear
8:35 AM 49.3 °F - 44.6 °F 84% 29.97 in 5.0 mi South 17.3 mph - N/A   Clear
8:55 AM 50.4 °F - 45.0 °F 82% 29.97 in 5.0 mi South 17.3 mph - N/A   Haze
9:15 AM 51.1 °F - 45.0 °F 80% 29.96 in 5.0 mi South 18.4 mph 25.3 mph N/A   Haze
9:35 AM 52.5 °F - 45.3 °F 76% 29.95 in 7.0 mi South 20.7 mph - N/A   Mostly Cloudy
9:55 AM 53.2 °F - 45.0 °F 73% 29.95 in 7.0 mi SSW 17.3 mph 21.9 mph N/A   Overcast
10:15 AM 53.8 °F - 45.3 °F 73% 29.94 in 10.0 mi SSW 17.3 mph 23.0 mph N/A   Mostly Cloudy
10:35 AM 54.7 °F - 44.8 °F 69% 29.93 in 10.0 mi SSW 17.3 mph 23.0 mph N/A   Mostly Cloudy
10:55 AM 55.4 °F - 45.1 °F 68% 29.91 in 10.0 mi South 13.8 mph 21.9 mph N/A   Mostly Cloudy
11:15 AM 57.4 °F - 45.7 °F 65% 29.90 in 10.0 mi South 16.1 mph 21.9 mph N/A   Scattered Clouds
11:35 AM 59.0 °F - 45.7 °F 61% 29.88 in 10.0 mi South 18.4 mph 25.3 mph N/A   Clear
11:55 AM 59.9 °F - 45.3 °F 59% 29.87 in 10.0 mi SSW 20.7 mph 31.1 mph N/A   Scattered Clouds
12:15 PM 59.9 °F - 45.5 °F 59% 29.86 in 10.0 mi SSW 24.2 mph 28.8 mph N/A   Mostly Cloudy
12:35 PM 60.8 °F - 45.1 °F 56% 29.85 in 10.0 mi SSW 26.5 mph 34.5 mph N/A   Mostly Cloudy
12:55 PM 61.3 °F - 45.7 °F 56% 29.83 in 10.0 mi SSW 20.7 mph 26.5 mph N/A   Scattered Clouds
1:15 PM 63.1 °F - 45.7 °F 53% 29.83 in 10.0 mi SSW 21.9 mph 28.8 mph N/A   Clear
1:35 PM 63.7 °F - 46.0 °F 53% 29.82 in 10.0 mi SSW 20.7 mph 27.6 mph N/A   Clear
1:55 PM 63.0 °F - 46.4 °F 55% 29.82 in 10.0 mi SSW 21.9 mph - N/A   Scattered Clouds
2:15 PM 62.2 °F - 46.6 °F 57% 29.81 in 10.0 mi SSW 17.3 mph - N/A   Scattered Clouds
2:35 PM 62.6 °F - 46.8 °F 56% 29.81 in 10.0 mi SSW 15.0 mph - N/A   Clear
2:55 PM 62.6 °F - 47.1 °F 57% 29.83 in 10.0 mi SW 11.5 mph 15.0 mph N/A Thunderstorm Mostly Cloudy
3:15 PM 61.7 °F - 47.1 °F 59% 29.83 in 10.0 mi SW 12.7 mph - N/A Thunderstorm Overcast
3:35 PM 62.6 °F - 46.6 °F 56% 29.83 in 10.0 mi SW 12.7 mph 18.4 mph N/A   Overcast
3:55 PM 62.6 °F - 46.2 °F 55% 29.82 in 10.0 mi SW 16.1 mph - N/A Thunderstorm Mostly Cloudy
4:15 PM 61.7 °F - 45.9 °F 56% 29.82 in 10.0 mi SSW 12.7 mph 19.6 mph N/A Thunderstorm Mostly Cloudy
4:35 PM 61.7 °F - 46.4 °F 57% 29.82 in 10.0 mi SSW 16.1 mph - N/A Rain Light Rain
4:55 PM 60.3 °F - 47.5 °F 63% 29.84 in 10.0 mi SSW 10.4 mph - N/A Rain Light Rain
5:15 PM 58.6 °F - 49.5 °F 72% 29.84 in 10.0 mi SW 16.1 mph 20.7 mph N/A Rain Rain
5:35 PM 58.1 °F - 49.6 °F 73% 29.84 in 10.0 mi SSW 12.7 mph - N/A Rain Light Rain
5:55 PM 57.4 °F - 50.2 °F 77% 29.84 in 10.0 mi South 9.2 mph - N/A   Overcast
6:15 PM 57.2 °F - 50.0 °F 77% 29.83 in 10.0 mi South 10.4 mph - N/A Thunderstorm Overcast
6:35 PM 56.7 °F - 49.6 °F 77% 29.83 in 10.0 mi SSW 10.4 mph - N/A   Overcast
6:55 PM 56.5 °F - 49.3 °F 77% 29.82 in 10.0 mi SSW 11.5 mph - N/A   Overcast
7:15 PM 57.2 °F - 49.6 °F 76% 29.82 in 10.0 mi SSW 10.4 mph - N/A   Overcast
7:35 PM 57.2 °F - 50.0 °F 77% 29.82 in 10.0 mi SW 9.2 mph - N/A   Overcast
7:55 PM 57.4 °F - 49.3 °F 74% 29.82 in 10.0 mi SW 15.0 mph 18.4 mph N/A   Overcast
8:15 PM 58.6 °F - 49.6 °F 72% 29.83 in 10.0 mi West 20.7 mph 31.1 mph N/A   Scattered Clouds
8:35 PM 55.8 °F - 43.9 °F 64% 29.85 in 10.0 mi WNW 21.9 mph 33.4 mph N/A   Scattered Clouds
8:55 PM 52.0 °F - 41.9 °F 69% 29.87 in 10.0 mi WNW 19.6 mph 31.1 mph N/A   Scattered Clouds
9:15 PM 46.9 °F - 37.6 °F 70% 29.89 in 10.0 mi WNW 24.2 mph 35.7 mph N/A   Clear
9:35 PM 45.3 °F 37.6 °F 37.4 °F 74% 29.91 in 10.0 mi WNW 19.6 mph 27.6 mph N/A   Clear
9:55 PM 44.6 °F 36.4 °F 36.9 °F 74% 29.92 in 10.0 mi WNW 20.7 mph 27.6 mph N/A   Clear
10:15 PM 43.7 °F 37.7 °F 36.9 °F 77% 29.93 in 10.0 mi WNW 11.5 mph - N/A   Clear
10:35 PM 42.8 °F 33.8 °F 35.1 °F 74% 29.94 in 10.0 mi WNW 21.9 mph 32.2 mph N/A   Clear
10:55 PM 42.1 °F 32.8 °F 34.7 °F 75% 29.95 in 10.0 mi WNW 21.9 mph 27.6 mph N/A   Clear
11:15 PM 41.7 °F 33.7 °F 34.7 °F 76% 29.96 in 10.0 mi WNW 16.1 mph 27.6 mph N/A   Clear
11:35 PM 41.0 °F 33.5 °F 34.2 °F 77% 29.97 in 10.0 mi WNW 13.8 mph 25.3 mph N/A   Scattered Clouds
11:55 PM 39.6 °F 30.6 °F 32.9 °F 77% 29.98 in 10.0 mi WNW 17.3 mph 26.5 mph N/A   Scattered Clouds